Wetbulb
59.33 59.35 59.45 59.32 59.33 59.28 59.81 60.01 60.50 60.66 61.13 61.85 62.26 62.98 63.47 63.53 62.92 62.00 54.46 60.16 63.60 70.74 68.64 60.58 60.54 60.33 61.97 61.62 61.67 58.04 56.07 52.36 49.66 49.16 50.95 53.59 51.94 55.03 55.08 53.21 52.71 53.21 53.13 55.06 59.82
59.44 59.16 59.36 59.47 59.63 59.96 60.27 60.29 60.35 60.58 61.27 61.57 62.22 62.86 62.67 63.24 61.28 53.91 63.57 68.42 69.65 70.60 58.74 58.36 57.11 58.59 58.76 58.46 59.67 56.70 54.75 49.40 51.72 53.12 52.19 52.77 52.39 52.83 52.72 52.44 51.64 52.41 54.48 56.62 59.61
59.73 59.55 59.40 59.64 59.92 59.94 60.07 60.20 60.44 60.67 61.16 61.77 62.36 62.67 62.37 62.05 56.70 53.50 68.22 69.36 69.91 67.24 59.51 59.23 58.21 57.64 55.79 57.79 56.40 55.07 52.47 52.35 53.07 54.22 53.44 51.99 50.91 51.56 52.02 50.39 49.34 48.96 51.12 54.49 56.69
59.26 59.51 59.49 59.49 59.94 59.92 59.94 60.27 60.42 60.76 61.31 61.90 62.06 62.54 62.52 60.25 47.36 55.35 68.33 66.83 67.60 59.92 58.44 57.43 56.84 55.08 54.42 52.81 54.10 52.18 53.11 52.95 53.31 52.05 51.70 51.02 51.58 48.80 50.07 48.53 49.83 50.34 51.68 53.23 53.68
58.30 58.81 59.26 59.58 59.77 59.99 60.14 60.29 60.33 60.84 61.25 61.41 61.47 62.28 60.20 52.83 51.20 56.42 65.07 62.56 57.28 58.13 57.16 56.23 54.49 54.39 51.79 52.70 52.36 51.33 51.54 52.21 51.71 51.75 51.67 51.71 49.31 48.12 47.19 48.61 50.21 50.72 51.39 51.73 52.48
57.68 58.17 59.17 59.55 59.64 59.60 59.81 59.71 60.20 60.63 61.04 61.09 61.42 61.43 57.46 49.10 55.44 56.69 55.56 54.90 56.31 57.57 56.45 56.63 55.00 55.24 53.24 51.51 50.81 51.71 50.83 50.18 51.50 51.48 51.08 49.58 48.00 48.98 47.06 48.85 49.01 49.55 50.02 50.87 51.01
57.39 58.32 59.15 59.23 59.20 59.26 59.34 59.51 59.92 60.42 60.61 60.68 61.18 59.20 53.11 51.15 56.52 56.59 55.44 54.86 55.02 55.86 54.30 55.68 55.04 52.06 52.54 50.35 52.21 50.99 48.16 49.77 50.23 50.62 48.94 50.96 46.93 45.48 47.32 48.22 47.81 48.20 49.05 49.02 49.13
57.19 58.36 58.60 58.70 59.15 59.05 59.08 59.23 59.67 60.02 60.40 61.06 61.01 57.28 50.29 54.76 57.15 54.26 55.44 54.53 56.06 56.87 56.88 56.81 56.95 54.24 51.77 52.92 50.04 48.33 48.49 46.30 48.29 50.05 49.22 49.66 45.52 45.86 47.42 47.40 46.69 47.20 47.85 48.02 47.69
57.64 57.97 58.02 58.71 58.82 58.60 58.35 58.97 59.53 60.33 60.99 61.50 57.73 53.76 48.61 59.01 52.42 53.96 54.83 52.93 54.83 55.86 56.81 56.06 55.74 52.79 52.22 49.03 47.13 47.58 44.22 44.74 45.66 48.82 48.72 48.29 46.01 46.46 47.23 46.71 46.10 46.94 47.11 47.19 47.29
57.48 57.49 58.04 58.40 58.01 57.71 58.18 58.31 59.35 60.09 58.86 58.65 55.77 50.82 51.21 49.19 52.44 53.04 54.70 54.47 53.01 53.81 53.81 53.69 52.95 50.06 49.76 47.87 42.25 43.03 43.74 44.47 45.00 47.34 47.62 46.08 44.72 45.27 45.98 46.25 46.32 46.33 46.57 46.70 46.70
57.65 58.13 58.32 57.82 57.26 56.98 56.99 56.84 54.03 52.37 53.92 49.17 49.47 49.01 50.04 53.39 54.20 53.44 54.38 53.04 52.96 52.07 48.38 50.59 48.42 46.10 46.88 47.43 46.60 46.03 45.03 44.29 45.86 46.67 45.65 44.50 44.60 44.82 45.07 45.24 45.39 45.94 45.90 45.97 46.14
58.37 58.47 57.96 57.26 56.58 56.78 57.44 54.22 52.06 54.85 49.51 52.41 51.77 52.02 53.12 53.50 50.18 53.32 54.85 50.15 49.55 47.26 48.39 48.27 45.99 47.70 47.72 47.36 46.50 45.92 44.62 44.64 45.05 45.88 45.74 45.49 44.68 45.31 44.79 44.87 45.73 45.75 45.81 45.82 46.24
58.17 58.25 57.69 56.73 56.49 56.46 56.96 55.48 58.73 56.40 50.35 50.27 52.03 51.22 52.35 52.76 49.90 51.16 52.73 50.63 48.48 46.84 47.12 46.03 47.09 47.90 47.00 46.21 45.35 45.49 44.12 43.60 43.20 44.98 44.30 43.41 43.81 42.75 44.07 44.87 45.10 45.68 46.41 46.22 46.50
58.06 57.97 56.96 56.55 55.16 57.83 55.91 58.01 59.16 56.60 46.73 46.06 49.04 51.34 52.27 52.95 49.47 52.46 51.86 50.93 49.32 46.50 47.00 46.84 47.56 46.54 46.24 45.07 45.83 43.08 45.05 44.36 43.29 42.95 41.04 43.28 38.84 42.19 43.43 42.13 43.40 44.57 45.17 45.71 45.99
57.02 56.54 56.69 55.07 57.20 55.39 56.42 59.34 58.70 56.02 37.90 46.92 49.13 54.72 52.55 50.28 50.57 50.56 50.62 51.69 47.39 47.26 47.39 45.12 45.10 45.18 44.84 45.07 46.30 44.32 44.75 43.48 43.11 42.39 41.22 40.97 39.15 43.73 42.97 40.23 42.17 43.80 44.42 45.10 45.71
56.14 56.21 55.11 56.05 58.14 56.40 58.06 57.89 56.21 44.97 37.73 45.36 49.23 48.42 48.59 48.75 48.01 49.74 48.27 50.24 48.50 46.51 47.30 45.72 47.89 46.17 46.08 46.03 45.36 44.56 42.89 42.28 42.90 41.93 37.63 40.72 40.12 43.81 40.69 42.00 43.11 43.86 43.90 44.68 45.14
56.63 55.98 56.79 57.39 55.06 57.71 58.00 55.88 44.85 40.28 46.45 44.42 45.31 47.45 46.98 45.41 45.41 46.63 44.32 43.08 43.38 41.54 42.37 43.85 44.25 44.79 45.58 43.55 44.69 43.85 41.55 38.75 37.35 37.43 38.33 40.55 39.16 43.31 44.48 42.93 44.41 42.94 43.46 44.81 45.33
55.19 55.87 52.17 51.82 56.68 57.04 56.49 49.51 39.95 42.18 44.00 45.88 45.63 46.09 44.71 43.96 44.16 44.78 43.71 42.29 40.70 40.76 41.77 40.55 38.99 42.47 42.97 42.95 41.45 41.21 40.56 38.25 33.38 35.94 37.74 38.26 36.76 42.94 41.95 43.59 44.59 44.61 44.75 44.73 44.67
54.19 52.05 52.39 50.23 54.46 56.78 52.59 43.45 42.88 43.90 44.83 44.59 44.74 43.59 43.57 42.17 42.32 43.02 42.63 41.70 39.93 39.78 39.01 38.98 37.68 40.66 40.85 42.18 42.25 40.33 39.33 41.26 36.81 35.92 34.71 39.67 40.04 42.62 40.71 41.26 42.20 42.67 43.49 43.78 43.85
53.56 51.81 49.44 48.61 53.82 55.87 49.53 43.81 43.64 42.45 43.09 43.37 43.30 43.13 41.54 42.89 40.46 40.85 40.59 41.70 39.03 39.28 40.91 38.24 36.10 38.18 39.82 41.46 41.69 40.82 41.88 37.33 38.72 32.99 32.28 37.09 36.68 39.44 38.65 39.71 41.01 41.72 42.70 43.91 43.74
51.82 49.32 48.41 49.63 53.17 52.74 45.49 43.94 41.48 42.24 43.35 42.57 43.26 41.63 42.42 41.96 40.65 39.96 39.11 40.26 41.50 38.40 40.01 38.85 36.39 36.11 38.26 38.56 39.27 38.70 38.71 38.05 38.02 37.15 34.54 33.79 38.23 42.60 41.71 42.52 42.35 43.10 44.06 44.37 43.96
51.00 46.33 48.86 50.80 48.78 46.38 46.14 41.83 42.46 41.38 43.20 41.92 42.65 41.76 41.41 39.67 38.76 38.71 38.53 40.17 40.61 39.95 37.01 37.99 37.34 36.00 36.60 37.63 38.65 38.59 37.88 39.22 36.24 35.20 35.75 33.86 35.70 41.91 41.87 42.17 42.61 43.84 44.50 44.79 44.22
48.11 46.92 49.52 48.88 45.27 44.74 41.23 40.00 40.85 40.38 40.27 40.39 39.81 40.35 40.12 38.91 37.26 38.00 39.45 40.42 39.66 38.88 37.59 38.65 36.96 36.35 35.82 37.06 38.05 36.66 37.67 37.31 36.32 36.67 34.73 33.68 37.69 40.92 41.28 41.84 42.54 42.53 43.61 44.06 43.69
47.31 44.17 46.01 46.32 43.93 44.15 41.24 39.70 38.34 40.35 39.89 39.99 39.31 39.87 39.00 37.49 38.07 37.17 38.39 39.22 39.75 40.39 40.10 39.39 36.66 36.39 36.30 36.35 37.48 35.74 35.93 36.41 37.08 34.38 36.39 35.94 38.67 42.04 42.30 41.93 42.29 42.46 42.85 43.26 43.53
46.73 44.00 41.61 42.55 41.84 42.04 41.47 40.03 37.82 37.39 39.70 40.33 38.46 38.50 38.01 36.28 36.56 36.48 38.27 38.66 39.03 42.23 39.33 38.92 35.40 34.68 36.56 35.82 34.41 34.58 35.10 35.60 34.30 36.72 34.19 38.15 38.23 40.85 42.41 42.56 42.93 42.91 41.82 41.56 41.93
46.89 44.52 42.19 40.73 39.57 41.12 39.67 39.00 37.52 37.41 38.70 37.44 37.36 38.35 38.15 36.89 37.78 36.67 38.66 38.90 38.74 39.98 39.35 37.90 35.69 34.09 33.69 33.08 33.01 32.05 35.49 36.00 35.42 35.71 35.83 36.73 35.65 42.14 42.91 42.02 41.08 40.91 41.15 40.58 41.15
45.47 44.16 46.88 37.21 39.81 41.68 41.24 39.72 39.36 40.21 38.64 39.45 38.62 39.03 37.34 37.98 39.22 39.75 40.61 39.31 39.81 39.09 38.62 36.50 35.58 33.17 32.41 31.71 32.31 32.06 36.12 36.96 37.13 37.39 36.81 34.46 40.72 41.53 40.08 40.03 40.84 41.30 40.90 40.42 40.79
MSLP
1018.36 1018.31 1018.44 1018.65 1018.75 1018.94 1018.98 1018.93 1018.88 1018.76 1018.53 1018.24 1017.98 1017.68 1017.38 1017.03 1016.10 1015.70 1014.81 1015.09 1014.78 1014.57 1014.19 1013.51 1012.99 1012.69 1012.39 1012.52 1012.76 1012.61 1011.68 1011.55 1012.30 1012.59 1013.60 1013.92 1013.67 1014.07 1014.65 1014.72 1016.12 1017.19 1017.59 1017.81 1017.31
1018.44 1018.38 1018.54 1018.66 1018.72 1018.85 1018.86 1018.75 1018.74 1018.59 1018.39 1018.13 1017.89 1017.60 1017.36 1017.08 1015.98 1014.90 1015.15 1014.96 1014.72 1014.51 1013.77 1013.18 1012.70 1012.50 1012.26 1012.60 1012.76 1012.34 1012.14 1012.69 1013.44 1013.79 1014.11 1014.50 1014.68 1015.24 1015.13 1015.86 1017.15 1017.75 1018.26 1018.12 1017.55
1018.37 1018.41 1018.51 1018.66 1018.70 1018.74 1018.70 1018.56 1018.56 1018.43 1018.21 1017.98 1017.74 1017.53 1017.28 1016.98 1015.85 1015.01 1015.08 1014.83 1014.61 1014.36 1014.05 1013.57 1013.06 1012.63 1012.44 1012.78 1013.00 1012.96 1012.86 1013.66 1014.31 1014.65 1014.96 1015.13 1015.88 1016.70 1016.45 1017.52 1018.91 1019.10 1019.03 1018.61 1018.10
1018.42 1018.41 1018.50 1018.53 1018.60 1018.60 1018.47 1018.43 1018.36 1018.24 1018.02 1017.84 1017.61 1017.27 1016.90 1016.36 1015.74 1015.07 1015.12 1014.74 1014.55 1014.23 1013.88 1013.40 1012.92 1012.60 1012.66 1012.81 1013.38 1013.09 1013.92 1014.28 1015.04 1015.46 1015.46 1015.76 1016.79 1017.82 1018.31 1019.57 1020.06 1020.13 1019.82 1019.21 1018.73
1018.46 1018.45 1018.41 1018.38 1018.40 1018.40 1018.27 1018.28 1018.17 1018.05 1017.87 1017.70 1017.47 1017.16 1016.69 1015.64 1015.21 1014.99 1015.16 1014.60 1014.30 1014.17 1014.01 1013.52 1013.01 1012.96 1012.79 1013.22 1013.58 1013.51 1014.21 1014.81 1015.52 1015.92 1016.31 1016.93 1017.73 1018.48 1019.68 1020.40 1020.55 1020.41 1020.14 1019.71 1019.38
1018.47 1018.33 1018.27 1018.31 1018.29 1018.17 1018.20 1018.11 1018.06 1017.87 1017.75 1017.55 1017.27 1017.15 1016.34 1015.10 1015.24 1015.21 1014.92 1014.56 1014.25 1014.14 1014.25 1013.89 1013.66 1013.63 1013.44 1013.84 1013.90 1014.44 1014.63 1015.14 1015.70 1016.07 1016.85 1017.40 1018.49 1018.87 1020.37 1020.62 1020.57 1020.40 1020.27 1020.20 1020.08
1018.34 1018.27 1018.18 1018.18 1018.09 1018.09 1018.12 1018.01 1017.91 1017.78 1017.66 1017.38 1017.22 1016.70 1015.52 1015.31 1015.18 1015.11 1015.03 1015.00 1015.07 1014.75 1014.52 1014.50 1014.34 1013.95 1014.05 1014.23 1014.81 1014.66 1014.47 1015.00 1015.71 1016.18 1016.98 1017.45 1018.33 1019.50 1020.49 1020.62 1020.44 1020.40 1020.44 1020.54 1020.53
1018.18 1018.09 1018.12 1017.93 1018.05 1018.06 1018.00 1017.80 1017.72 1017.73 1017.48 1017.26 1016.99 1016.17 1015.23 1015.39 1015.25 1015.18 1015.05 1015.07 1015.12 1014.94 1014.83 1014.90 1014.66 1014.54 1014.48 1014.92 1014.70 1014.33 1014.46 1014.45 1015.64 1016.10 1017.00 1017.51 1017.60 1019.71 1020.52 1020.46 1020.44 1020.39 1020.48 1020.68 1020.76
1017.93 1017.94 1017.80 1017.99 1018.14 1018.04 1017.80 1017.65 1017.56 1017.39 1017.20 1017.02 1016.58 1015.61 1015.18 1015.30 1015.28 1015.34 1015.20 1015.02 1015.08 1015.09 1015.09 1015.08 1014.90 1014.91 1014.98 1014.27 1014.04 1014.05 1013.33 1014.32 1015.38 1016.36 1016.60 1017.04 1017.57 1019.50 1020.36 1020.48 1020.40 1020.31 1020.41 1020.58 1020.76
1017.72 1017.68 1017.89 1018.08 1018.09 1017.84 1017.64 1017.55 1017.24 1016.97 1016.77 1016.51 1016.10 1015.60 1015.41 1015.21 1015.43 1015.49 1015.37 1015.25 1015.10 1015.10 1014.89 1014.77 1014.72 1014.51 1014.55 1014.09 1013.33 1013.45 1013.74 1014.53 1014.95 1016.04 1016.45 1016.91 1017.83 1019.23 1020.07 1020.25 1020.16 1020.26 1020.37 1020.43 1020.53
1017.51 1017.76 1017.94 1017.91 1017.74 1017.60 1017.24 1016.99 1016.91 1016.64 1015.80 1015.95 1015.71 1015.34 1015.23 1015.46 1015.56 1015.40 1015.51 1015.28 1015.14 1014.89 1014.48 1014.89 1014.39 1013.88 1014.27 1014.48 1014.50 1014.46 1014.49 1014.73 1015.45 1016.51 1016.60 1016.93 1017.50 1018.64 1019.67 1020.06 1020.06 1020.11 1020.15 1020.26 1020.45
1017.54 1017.69 1017.74 1017.66 1017.55 1017.49 1017.01 1016.12 1016.18 1016.25 1015.99 1015.99 1015.75 1015.49 1015.53 1015.52 1015.35 1015.44 1015.55 1015.32 1015.04 1014.72 1015.05 1014.93 1014.37 1014.95 1015.07 1015.17 1015.02 1015.00 1014.87 1014.97 1015.99 1016.71 1016.75 1016.56 1016.76 1017.96 1019.02 1019.40 1019.64 1019.77 1019.93 1020.13 1020.46
1017.38 1017.45 1017.47 1017.48 1017.42 1017.27 1016.57 1016.35 1016.32 1016.06 1015.34 1015.91 1015.75 1015.45 1015.56 1015.64 1015.77 1015.92 1015.86 1015.69 1015.27 1015.15 1015.04 1014.74 1015.30 1015.62 1015.59 1015.60 1015.43 1015.33 1015.35 1015.54 1016.05 1016.64 1016.91 1016.77 1015.71 1017.05 1018.36 1019.00 1019.48 1019.73 1019.88 1020.18 1020.31
1017.12 1017.24 1017.30 1017.26 1017.63 1016.79 1016.49 1016.56 1016.41 1016.12 1015.07 1015.90 1015.61 1015.63 1015.73 1015.76 1016.23 1016.73 1016.72 1016.40 1015.80 1015.48 1015.61 1015.43 1015.93 1015.96 1015.97 1015.85 1016.04 1015.76 1016.34 1016.49 1016.61 1016.51 1015.95 1016.71 1015.14 1015.81 1016.92 1018.15 1018.76 1019.14 1019.58 1019.78 1020.14
1016.96 1017.10 1017.21 1017.44 1016.59 1016.52 1016.71 1016.53 1016.36 1015.98 1014.82 1016.03 1015.59 1015.73 1015.81 1015.91 1016.54 1016.93 1017.39 1016.42 1016.14 1016.07 1016.22 1015.96 1016.21 1016.35 1016.34 1016.43 1016.76 1016.79 1017.17 1017.02 1016.79 1016.35 1016.33 1016.03 1016.05 1014.73 1016.24 1017.05 1017.64 1018.34 1018.97 1019.53 1019.94
1017.03 1017.18 1017.30 1017.08 1016.52 1016.88 1016.69 1016.45 1016.06 1015.56 1015.00 1015.71 1015.72 1015.66 1015.76 1016.26 1016.79 1016.97 1017.04 1017.12 1017.39 1016.86 1016.63 1016.62 1017.16 1017.09 1017.01 1017.40 1017.45 1017.66 1017.43 1017.18 1016.81 1016.23 1015.34 1014.89 1015.41 1013.29 1015.06 1015.46 1016.41 1017.60 1018.60 1019.23 1019.80
1017.12 1017.20 1017.16 1016.67 1016.72 1016.87 1016.59 1015.99 1015.38 1014.91 1016.02 1015.95 1015.90 1016.01 1016.13 1016.49 1016.96 1017.28 1017.46 1017.58 1017.64 1017.25 1016.74 1017.14 1017.32 1017.78 1017.95 1017.58 1017.79 1017.52 1017.05 1015.89 1015.55 1015.29 1014.12 1015.23 1015.24 1013.04 1014.58 1015.56 1015.85 1017.00 1018.15 1018.92 1019.54
1017.10 1017.13 1017.28 1017.28 1017.16 1016.87 1016.25 1015.53 1015.16 1015.70 1015.87 1016.40 1016.40 1016.49 1016.37 1017.02 1017.50 1017.80 1017.98 1018.16 1018.82 1018.42 1017.60 1017.09 1017.75 1018.16 1018.52 1018.11 1017.74 1017.65 1017.34 1016.16 1015.13 1014.31 1014.10 1015.60 1014.15 1013.45 1015.22 1015.90 1016.33 1017.22 1018.05 1018.88 1019.33
1017.02 1016.73 1016.73 1017.19 1017.26 1016.84 1015.92 1015.22 1015.51 1016.21 1016.70 1016.71 1016.86 1016.67 1016.90 1017.41 1017.71 1017.96 1018.45 1018.83 1019.44 1019.45 1018.67 1017.95 1018.17 1018.87 1019.00 1018.88 1018.77 1018.20 1017.68 1017.67 1016.41 1016.03 1014.98 1013.31 1013.41 1013.95 1015.43 1016.09 1016.72 1017.34 1018.07 1018.58 1019.05
1016.72 1016.66 1017.16 1017.67 1017.33 1016.46 1015.69 1015.94 1016.83 1017.57 1017.71 1017.61 1016.94 1017.14 1016.88 1017.33 1017.81 1018.10 1018.65 1019.85 1020.23 1020.49 1020.07 1019.23 1018.80 1019.12 1019.35 1019.45 1019.38 1018.83 1018.67 1018.06 1017.01 1015.40 1013.95 1012.81 1013.13 1012.80 1014.61 1015.43 1016.37 1016.93 1017.46 1018.19 1018.96
1016.70 1016.63 1017.54 1017.62 1017.10 1016.12 1015.83 1016.93 1017.89 1018.59 1018.68 1018.35 1017.71 1017.57 1017.56 1017.71 1018.08 1018.44 1019.27 1020.66 1020.95 1021.08 1020.80 1020.17 1019.63 1019.57 1019.61 1019.22 1018.80 1019.47 1018.78 1018.49 1017.91 1016.71 1014.87 1013.43 1011.99 1012.95 1013.72 1014.52 1015.36 1016.19 1016.84 1017.64 1018.47
1016.58 1016.48 1017.59 1017.50 1016.75 1017.14 1017.09 1018.15 1018.99 1019.08 1019.17 1019.01 1018.74 1018.48 1018.31 1018.53 1018.63 1019.21 1019.89 1020.90 1021.78 1021.66 1021.17 1021.08 1020.15 1018.98 1018.66 1019.73 1020.10 1019.72 1018.96 1018.45 1017.68 1016.97 1016.54 1015.69 1013.16 1013.65 1014.33 1014.91 1015.43 1015.73 1016.44 1017.41 1018.53
1016.30 1016.92 1017.53 1017.27 1016.51 1017.08 1018.33 1018.84 1019.38 1019.50 1019.63 1019.50 1019.35 1019.35 1019.31 1019.13 1019.50 1020.01 1020.83 1022.11 1022.39 1022.20 1021.87 1021.53 1020.45 1019.17 1019.14 1020.19 1020.35 1019.87 1019.45 1019.22 1019.07 1018.43 1016.62 1015.48 1013.16 1014.00 1014.69 1015.12 1015.70 1016.21 1016.65 1017.36 1018.33
1016.84 1016.85 1017.32 1017.45 1017.96 1017.27 1017.86 1018.64 1019.36 1019.96 1019.98 1019.99 1019.90 1019.82 1019.65 1019.72 1020.12 1020.45 1021.25 1022.33 1022.73 1022.63 1022.69 1022.33 1021.10 1019.90 1019.09 1019.38 1019.69 1019.59 1019.56 1019.53 1018.91 1017.99 1015.69 1014.62 1012.86 1013.25 1014.03 1014.80 1015.63 1016.25 1017.02 1017.47 1017.85
1017.35 1017.80 1018.38 1017.57 1017.84 1017.79 1017.92 1018.54 1019.04 1019.68 1020.08 1020.15 1020.05 1019.85 1019.71 1019.88 1020.29 1020.59 1021.42 1022.26 1022.87 1022.94 1023.00 1022.51 1021.27 1020.72 1019.84 1020.02 1020.26 1019.80 1019.35 1019.26 1018.65 1016.95 1016.18 1013.71 1013.60 1013.36 1013.90 1014.60 1015.14 1015.94 1016.92 1017.53 1017.95
1017.70 1017.98 1018.68 1018.38 1018.33 1017.98 1018.49 1018.63 1018.95 1019.70 1019.94 1020.16 1020.16 1020.32 1020.52 1020.42 1020.66 1020.88 1021.32 1021.96 1022.09 1023.08 1022.95 1022.99 1021.93 1021.68 1020.46 1020.73 1020.64 1019.85 1018.81 1018.40 1017.89 1017.17 1016.22 1014.93 1014.60 1014.51 1014.61 1015.36 1015.74 1016.37 1017.04 1017.56 1017.92
1018.85 1018.75 1017.93 1018.63 1018.33 1018.09 1018.39 1018.88 1019.22 1019.64 1020.63 1020.71 1020.76 1020.85 1021.26 1021.55 1021.64 1021.80 1021.89 1022.14 1022.34 1022.55 1022.84 1023.03 1022.57 1022.17 1020.63 1020.82 1020.35 1018.84 1016.86 1016.79 1016.46 1016.38 1015.91 1015.13 1014.16 1014.87 1015.33 1015.89 1016.23 1016.71 1017.31 1017.73 1018.15
Wind_Speed
3 5 4 3 2 2 4 6 8 9 9 10 12 12 13 13 16 5 3 7 7 12 10 6 4 2 2 4 4 1 2 3 3 2 6 3 4 6 3 8 10 9 10 11 12
3 3 2 1 1 3 5 5 8 8 9 10 11 12 12 11 4 6 4 6 7 8 4 4 2 3 4 3 2 2 2 3 3 5 3 2 3 6 1 5 8 11 11 10 8
1 3 2 2 3 4 5 5 7 8 9 10 11 10 11 9 3 3 7 6 7 6 3 3 1 1 3 2 3 2 3 3 6 5 2 1 4 5 2 8 9 9 11 10 10
2 2 2 2 4 5 4 6 8 8 9 9 10 11 11 3 2 2 9 7 6 3 3 1 0 2 2 3 2 2 4 4 5 3 3 3 5 7 11 6 5 7 7 10 13
1 2 3 4 5 5 5 7 8 9 9 9 10 10 5 4 3 3 8 6 2 2 4 1 1 1 3 3 2 1 3 5 7 10 9 12 10 8 9 6 5 6 8 10 11
5 4 4 5 5 4 7 7 8 9 9 9 9 8 4 4 2 4 8 4 9 4 5 3 3 2 6 3 2 3 2 4 7 8 9 7 5 2 5 4 6 7 9 11 12
5 5 5 5 4 6 9 7 8 9 9 9 7 4 2 5 3 4 4 3 3 2 3 5 3 1 2 5 2 2 3 7 6 5 4 8 6 6 5 4 6 7 9 10 10
5 6 6 4 7 9 8 7 8 9 9 8 5 4 4 1 3 2 1 3 3 4 5 3 5 6 2 4 3 2 3 6 5 1 3 10 1 7 5 6 6 6 8 8 9
6 6 5 7 10 8 6 7 9 9 7 6 4 5 6 1 2 3 3 2 2 3 4 4 2 3 4 3 4 3 6 4 5 3 1 4 2 8 7 7 7 7 7 7 8
5 4 7 9 8 5 6 6 3 6 4 3 2 5 3 4 2 1 2 3 1 3 3 1 2 3 3 5 7 3 5 3 5 3 2 3 3 9 9 10 9 8 7 6 6
6 8 10 8 4 3 5 4 5 5 1 4 4 4 4 3 1 4 3 2 1 2 2 2 6 5 1 1 1 2 3 5 1 1 5 2 5 10 11 10 10 9 8 6 4
10 10 9 5 1 2 4 3 3 4 7 3 2 3 2 1 2 6 4 3 2 2 2 5 4 2 5 4 4 3 5 5 1 1 5 4 10 10 13 12 11 10 9 6 5
10 9 7 4 2 3 1 2 3 3 2 3 2 3 3 1 3 6 5 0 1 3 1 4 5 5 4 5 5 4 7 3 4 1 2 7 10 12 14 11 11 10 7 6 6
7 6 5 4 2 2 2 2 3 3 4 4 2 3 2 2 3 3 5 3 2 2 2 1 2 6 5 5 4 6 2 1 3 5 5 3 6 8 13 15 14 14 11 9 7
6 6 5 7 5 2 3 3 2 4 6 3 3 2 2 0 3 4 3 2 1 3 4 5 3 5 6 1 2 4 1 3 4 7 6 7 6 6 9 14 17 15 12 9 8
7 8 8 3 2 3 3 2 4 5 2 4 2 3 4 2 2 3 2 5 2 1 0 2 1 2 2 3 2 3 3 1 2 3 6 6 5 4 7 8 13 14 12 9 8
6 7 3 1 3 3 2 3 5 5 1 4 2 2 1 2 2 5 3 3 2 5 7 4 3 2 2 4 4 4 6 4 5 5 3 5 6 9 3 5 10 16 13 11 7
7 6 5 3 3 3 3 5 5 2 1 2 2 3 3 0 2 1 1 4 3 3 2 5 6 2 3 2 2 1 4 5 6 4 4 3 7 2 2 4 8 12 10 7 6
7 2 2 5 5 3 5 5 3 2 2 4 3 4 4 3 2 3 0 1 1 2 4 3 4 3 4 2 4 5 5 4 5 1 5 3 5 8 5 9 11 13 11 8 4
1 1 3 9 6 3 4 1 1 2 0 2 6 3 3 4 4 4 4 2 3 1 3 2 3 1 3 1 4 4 4 3 3 5 6 5 6 9 10 13 14 15 14 10 4
1 3 3 6 4 3 4 2 2 2 1 2 2 3 2 3 3 2 2 3 0 2 2 0 3 4 2 6 4 5 4 2 4 5 6 7 4 4 1 5 12 14 14 12 8
2 2 4 3 3 1 2 2 1 2 1 1 1 1 1 2 2 2 0 3 2 0 1 2 3 4 0 3 3 3 3 6 5 4 2 4 10 4 2 2 5 9 10 12 9
1 2 2 4 3 3 3 3 2 1 1 1 2 2 0 2 2 1 2 2 1 0 0 2 3 4 6 4 3 6 5 4 2 1 10 9 7 4 4 2 3 7 10 10 10
2 3 2 3 2 2 5 4 4 1 2 2 3 1 2 2 2 2 4 3 0 1 4 2 4 7 7 4 1 5 8 10 10 6 10 14 22 18 9 7 8 9 9 10 11
3 3 3 3 3 3 1 4 5 4 1 2 3 3 3 4 4 4 3 4 2 5 1 4 6 4 10 9 8 11 14 11 18 21 13 21 19 20 17 18 15 8 6 7 10
2 3 2 3 3 4 1 3 4 3 2 3 2 3 3 2 2 2 5 4 2 6 4 2 2 2 6 1 4 11 17 18 22 23 24 26 27 21 10 3 4 4 7 9 11
2 2 3 1 3 3 2 4 4 5 2 3 1 2 3 1 2 3 2 3 1 2 7 4 2 2 5 1 7 13 18 15 11 13 12 14 10 6 6 8 9 9 9 10 11
Wind_Direction
134 115 111 121 117 271 282 291 300 303 305 312 315 318 322 323 303 214 56 351 314 315 310 282 276 19 79 75 33 304 241 77 91 119 104 41 6 52 47 73 60 49 17 332 333
160 135 148 190 220 261 275 292 298 298 303 306 308 315 321 328 281 73 20 305 310 327 312 349 16 12 84 67 34 349 333 67 46 64 82 47 14 339 248 78 66 37 29 13 17
168 190 178 214 247 262 273 297 289 292 296 302 306 313 317 309 237 59 349 323 320 315 307 320 329 23 81 48 27 48 48 105 81 84 347 293 78 27 187 63 40 8 16 27 40
157 155 214 253 261 266 278 285 281 286 292 300 308 312 320 280 173 35 327 339 321 312 271 314 342 113 108 114 62 171 87 46 62 352 198 129 94 79 53 77 44 39 29 44 51
256 229 252 264 266 265 284 273 278 283 291 299 307 315 265 172 82 355 318 358 48 323 27 15 73 142 125 103 130 103 88 69 92 85 94 101 81 100 80 74 81 79 65 60 57
271 261 266 262 263 282 274 271 278 285 290 298 308 309 242 177 2 334 334 341 32 38 38 20 62 51 94 73 1 67 32 79 114 125 134 119 113 216 84 116 102 89 76 68 61
261 266 269 261 286 284 267 274 283 290 291 298 304 281 222 78 349 347 7 33 3 33 97 53 50 305 116 123 87 112 164 137 106 170 119 140 121 98 120 144 117 105 94 82 73
248 269 265 311 297 269 268 284 290 285 292 291 295 263 74 45 347 33 37 93 77 62 78 54 72 90 18 122 140 208 218 201 89 184 127 203 250 153 161 170 139 123 109 100 85
247 259 304 295 269 266 286 294 285 282 279 274 238 264 120 125 144 21 4 75 91 86 70 87 72 67 164 208 203 199 273 230 168 79 239 242 101 162 179 189 169 153 135 121 111
250 282 276 262 259 280 301 278 294 282 207 208 250 202 165 112 47 357 55 52 90 147 157 153 122 166 166 223 277 246 249 215 254 104 275 265 172 167 179 194 182 168 157 152 135
257 249 244 242 255 309 273 193 179 148 134 22 73 71 106 91 212 55 8 166 176 212 216 54 234 233 186 162 134 187 233 261 243 38 285 245 198 188 184 195 191 188 180 173 156
230 225 224 223 250 270 252 262 25 9 110 45 74 85 66 9 135 50 335 227 216 195 204 206 247 108 124 152 176 214 255 255 156 122 279 259 256 200 192 200 198 192 195 189 189
213 207 199 189 180 207 275 84 335 275 98 77 33 76 85 240 69 27 340 53 70 186 215 274 83 143 185 176 216 226 264 259 309 238 234 292 251 197 205 204 201 213 212 213 229
190 183 173 153 194 139 130 17 311 290 198 127 141 97 125 144 99 1 11 331 155 225 178 309 96 199 203 225 252 267 145 169 276 288 291 304 306 190 193 208 209 209 208 216 226
163 165 168 220 111 177 45 314 271 244 215 117 115 56 92 331 102 62 22 248 229 146 231 98 170 176 216 321 229 36 4 303 280 261 295 176 243 114 187 215 212 210 211 221 226
159 161 166 184 158 40 310 265 234 230 189 138 118 157 171 85 79 339 56 52 31 164 19 84 43 332 26 96 46 120 213 201 189 213 235 132 240 196 184 232 204 201 199 199 199
145 155 231 311 78 339 275 219 212 258 132 143 140 176 183 118 103 19 28 52 296 215 194 162 158 103 335 219 184 236 253 233 207 207 3 147 223 283 223 220 203 184 187 184 192
155 171 55 40 342 303 230 216 241 77 172 108 131 123 226 119 101 64 171 186 83 272 232 228 186 200 14 344 357 54 296 308 291 290 360 154 236 93 4 184 178 175 177 185 207
165 102 84 21 343 270 236 215 2 104 87 167 147 210 177 185 279 201 331 131 56 341 277 226 154 130 42 359 308 125 227 19 283 197 257 210 235 187 175 168 177 186 191 194 217
127 121 58 338 322 240 239 70 106 52 119 233 224 241 218 179 219 216 187 104 144 334 311 109 229 157 110 231 75 285 97 220 189 268 264 203 273 271 192 198 200 207 212 207 230
151 182 44 334 258 219 246 100 127 89 291 264 220 178 210 196 238 205 102 121 295 94 336 260 285 113 211 203 189 159 203 206 298 270 290 299 276 47 346 215 216 223 226 226 241
166 182 19 283 183 4 150 80 35 130 105 116 49 81 220 170 183 214 322 40 33 289 294 38 310 247 306 106 344 296 271 242 255 178 252 304 272 106 265 283 266 248 239 228 247
124 79 98 272 218 142 120 101 53 136 47 130 122 339 169 165 222 186 148 66 67 220 301 155 190 264 181 178 177 234 203 241 192 271 235 271 271 148 141 209 235 258 265 231 257
188 165 108 73 12 163 157 150 142 109 127 107 122 162 156 149 51 154 165 146 102 111 87 254 269 267 280 2 19 220 210 212 220 240 270 233 279 287 256 281 291 279 265 256 290
0 84 358 134 119 122 124 146 151 164 127 209 151 222 186 174 180 194 167 163 173 159 130 263 260 255 271 275 257 265 261 224 225 239 252 270 282 286 304 314 310 314 287 273 282
169 167 140 86 133 153 155 151 160 148 193 169 238 153 199 244 333 165 178 217 211 177 207 184 268 294 281 197 256 269 269 249 244 256 263 267 278 287 297 333 313 293 288 290 297
117 119 274 111 149 221 97 135 158 153 100 38 84 159 200 36 15 45 68 46 305 224 196 219 242 283 277 313 289 263 252 247 231 234 250 254 287 352 289 308 298 305 292 294 307